When you browse on this site, cookies collect data to enhance your experience and personalize the content and advertising you see.
Visit our Privacy Policy to learn more. By continuing to use the site, you agree to this use of cookies and data.

Hourly Weather Bamenda

Today, 15 July, Wednesday

Time Temperature Precipitation Wind Pressure Humidity
00:00 +16°C° 2.5 mm 0 mps 641 mmHg 99%
01:00 +16°C° 0 mm 0 mps 641 mmHg 98%
02:00 +16°C° 0.8 mm 0 mps 641 mmHg 97%
03:00 +16°C° 0.8 mm 0 mps 640 mmHg 97%
04:00 +16°C° 0.8 mm 0 mps 640 mmHg 97%
05:00 +18°C° 0.1 mm 1 mps 641 mmHg 97%
06:00 +18°C° 0.1 mm 1 mps 641 mmHg 97%
07:00 +18°C° 0.1 mm 1 mps 641 mmHg 97%
08:00 +16°C° 0.2 mm 0 mps 642 mmHg 96%
09:00 +17°C° 0.2 mm 0 mps 642 mmHg 96%
10:00 +17°C° 0.2 mm 0 mps 643 mmHg 95%
11:00 +18°C° 0.6 mm 0 mps 642 mmHg 94%
12:00 +18°C° 0.6 mm 0 mps 642 mmHg 93%
13:00 +19°C° 0.6 mm 0 mps 642 mmHg 92%
14:00 +21°C° 1.1 mm 1 mps 642 mmHg 93%
15:00 +21°C° 1.1 mm 1 mps 641 mmHg 93%
16:00 +20°C° 1.1 mm 1 mps 641 mmHg 94%
17:00 +20°C° 0.7 mm 1 mps 641 mmHg 95%
18:00 +19°C° 0.7 mm 1 mps 641 mmHg 96%
19:00 +19°C° 0.7 mm 1 mps 641 mmHg 97%
20:00 +18°C° 0.6 mm 1 mps 641 mmHg 97%
21:00 +18°C° 0.6 mm 1 mps 641 mmHg 97%
22:00 +18°C° 0.6 mm 1 mps 642 mmHg 98%
23:00 +18°C° 1.5 mm 1 mps 642 mmHg 98%

Tomorrow, 16 July, Thursday

Time Temperature Precipitation Wind Pressure Humidity
00:00 +18°C° 1.5 mm 1 mps 642 mmHg 98%
01:00 +18°C° 1.5 mm 1 mps 642 mmHg 98%
02:00 +16°C° 0.9 mm 0 mps 641 mmHg 98%
03:00 +16°C° 0.9 mm 0 mps 641 mmHg 98%
04:00 +16°C° 0.9 mm 0 mps 641 mmHg 98%
05:00 +16°C° 0.3 mm 0 mps 641 mmHg 98%
06:00 +16°C° 0.3 mm 0 mps 641 mmHg 97%
07:00 +16°C° 0.3 mm 0 mps 642 mmHg 97%
08:00 +17°C° 0.1 mm 0 mps 642 mmHg 95%
09:00 +19°C° 0.1 mm 1 mps 643 mmHg 94%
10:00 +20°C° 0.1 mm 1 mps 643 mmHg 92%
11:00 +21°C° 1 mm 1 mps 643 mmHg 91%
12:00 +22°C° 1 mm 1 mps 643 mmHg 90%
13:00 +22°C° 1 mm 1 mps 643 mmHg 89%
14:00 +22°C° 2 mm 1 mps 642 mmHg 90%
15:00 +22°C° 2 mm 1 mps 641 mmHg 91%
16:00 +21°C° 2 mm 1 mps 641 mmHg 92%
17:00 +20°C° 1.1 mm 1 mps 641 mmHg 94%
18:00 +20°C° 1.1 mm 1 mps 641 mmHg 95%
19:00 +19°C° 1.1 mm 1 mps 641 mmHg 97%
20:00 +18°C° 0.5 mm 1 mps 642 mmHg 97%
21:00 +18°C° 0.5 mm 1 mps 642 mmHg 97%
22:00 +18°C° 0.5 mm 1 mps 642 mmHg 98%
23:00 +18°C° 0.1 mm 1 mps 642 mmHg 98%

Day after tomorrow, 17 July, Friday

Time Temperature Precipitation Wind Pressure Humidity
00:00 +18°C° 0.1 mm 1 mps 642 mmHg 98%
01:00 +18°C° 0.1 mm 1 mps 642 mmHg 98%
02:00 +18°C° 0.1 mm 1 mps 641 mmHg 98%
03:00 +16°C° 0.1 mm 1 mps 641 mmHg 98%
04:00 +16°C° 0.1 mm 1 mps 641 mmHg 98%
05:00 +16°C° 0 mm 1 mps 641 mmHg 98%
06:00 +16°C° 0 mm 1 mps 642 mmHg 97%
07:00 +18°C° 0 mm 1 mps 642 mmHg 97%
08:00 +19°C° 0.1 mm 1 mps 642 mmHg 94%
09:00 +20°C° 0.1 mm 1 mps 643 mmHg 90%
10:00 +21°C° 0.1 mm 1 mps 644 mmHg 87%
11:00 +22°C° 1 mm 1 mps 643 mmHg 87%
12:00 +22°C° 1 mm 1 mps 643 mmHg 86%
13:00 +22°C° 1 mm 1 mps 642 mmHg 85%
14:00 +22°C° 1.6 mm 1 mps 642 mmHg 87%
15:00 +22°C° 1.6 mm 1 mps 641 mmHg 89%
16:00 +22°C° 1.6 mm 1 mps 641 mmHg 90%
17:00 +21°C° 1 mm 1 mps 641 mmHg 92%
18:00 +20°C° 1 mm 1 mps 641 mmHg 95%
19:00 +19°C° 1 mm 1 mps 641 mmHg 97%
20:00 +19°C° 0.5 mm 1 mps 641 mmHg 97%
21:00 +19°C° 0.5 mm 1 mps 641 mmHg 97%
22:00 +18°C° 0.5 mm 1 mps 642 mmHg 97%
23:00 +18°C° 0.2 mm 1 mps 641 mmHg 97%

18 July, Saturday

Time Temperature Precipitation Wind Pressure Humidity
00:00 +18°C° 0.2 mm 1 mps 641 mmHg 97%
01:00 +18°C° 0.2 mm 1 mps 641 mmHg 97%
02:00 +18°C° 1.1 mm 1 mps 641 mmHg 98%
03:00 +18°C° 1.1 mm 1 mps 641 mmHg 98%
04:00 +18°C° 1.1 mm 1 mps 641 mmHg 98%
05:00 +18°C° 0.4 mm 1 mps 641 mmHg 98%
06:00 +18°C° 0.4 mm 1 mps 641 mmHg 98%
07:00 +18°C° 0.4 mm 1 mps 642 mmHg 98%
08:00 +18°C° 0.5 mm 1 mps 642 mmHg 97%
09:00 +18°C° 0.5 mm 1 mps 642 mmHg 97%
10:00 +19°C° 0.5 mm 1 mps 643 mmHg 96%
11:00 +19°C° 0.6 mm 1 mps 642 mmHg 96%
12:00 +19°C° 0.6 mm 1 mps 642 mmHg 95%
13:00 +20°C° 0.6 mm 1 mps 642 mmHg 95%
14:00 +20°C° 0.5 mm 1 mps 641 mmHg 94%
15:00 +20°C° 0.5 mm 1 mps 641 mmHg 93%
16:00 +20°C° 0.5 mm 1 mps 640 mmHg 93%
17:00 +19°C° 0.2 mm 1 mps 640 mmHg 94%
18:00 +19°C° 0.2 mm 1 mps 640 mmHg 95%
19:00 +18°C° 0.2 mm 1 mps 640 mmHg 96%
20:00 +18°C° 0 mm 1 mps 641 mmHg 95%
21:00 +16°C° 0 mm 1 mps 641 mmHg 94%
22:00 +16°C° 0 mm 1 mps 641 mmHg 94%
23:00 +16°C° 0 mm 1 mps 641 mmHg 94%

19 July, Sunday

Time Temperature Precipitation Wind Pressure Humidity
00:00 +16°C° 0 mm 1 mps 641 mmHg 94%
01:00 +16°C° 0 mm 1 mps 641 mmHg 94%
02:00 +16°C° 0 mm 1 mps 641 mmHg 94%
03:00 +16°C° 0 mm 1 mps 640 mmHg 95%
04:00 +16°C° 0 mm 1 mps 640 mmHg 95%
05:00 +16°C° 0 mm 1 mps 640 mmHg 95%
06:00 +16°C° 0 mm 1 mps 641 mmHg 95%
07:00 +15°C° 0 mm 0 mps 641 mmHg 95%
08:00 +17°C° 0.1 mm 0 mps 642 mmHg 91%
09:00 +18°C° 0.1 mm 0 mps 642 mmHg 88%
10:00 +19°C° 0.1 mm 0 mps 643 mmHg 84%
11:00 +22°C° 1.2 mm 1 mps 643 mmHg 85%
12:00 +22°C° 1.2 mm 1 mps 642 mmHg 86%
13:00 +22°C° 1.2 mm 1 mps 642 mmHg 87%
14:00 +22°C° 2 mm 1 mps 641 mmHg 88%
15:00 +22°C° 2 mm 1 mps 641 mmHg 89%
16:00 +22°C° 2 mm 1 mps 640 mmHg 90%
17:00 +21°C° 1.4 mm 1 mps 640 mmHg 92%
18:00 +20°C° 1.4 mm 1 mps 640 mmHg 95%
19:00 +19°C° 1.4 mm 1 mps 640 mmHg 97%
20:00 +19°C° 1 mm 1 mps 640 mmHg 97%
21:00 +18°C° 1 mm 1 mps 641 mmHg 97%
22:00 +18°C° 1 mm 1 mps 641 mmHg 98%
23:00 +18°C° 0.8 mm 1 mps 641 mmHg 98%

20 July, Monday

Time Temperature Precipitation Wind Pressure Humidity
00:00 +18°C° 0.8 mm 1 mps 641 mmHg 98%
01:00 +18°C° 0.8 mm 1 mps 640 mmHg 98%
02:00 +18°C° 1.2 mm 1 mps 640 mmHg 98%
03:00 +18°C° 1.2 mm 1 mps 640 mmHg 98%
04:00 +18°C° 1.2 mm 1 mps 640 mmHg 98%
05:00 +18°C° 1.1 mm 1 mps 640 mmHg 98%
06:00 +18°C° 1.1 mm 1 mps 641 mmHg 98%
07:00 +16°C° 1.1 mm 0 mps 641 mmHg 98%
08:00 +16°C° 1.3 mm 0 mps 641 mmHg 98%
09:00 +18°C° 1.3 mm 1 mps 642 mmHg 98%
10:00 +18°C° 1.3 mm 1 mps 642 mmHg 98%
11:00 +18°C° 0.7 mm 1 mps 642 mmHg 97%
12:00 +19°C° 0.7 mm 1 mps 641 mmHg 97%
13:00 +19°C° 0.7 mm 1 mps 641 mmHg 96%
14:00 +19°C° 0.3 mm 1 mps 641 mmHg 94%
15:00 +20°C° 0.3 mm 1 mps 640 mmHg 93%
16:00 +20°C° 0.3 mm 1 mps 640 mmHg 91%
17:00 +19°C° 0.3 mm 1 mps 640 mmHg 93%
18:00 +19°C° 0.3 mm 1 mps 640 mmHg 95%
19:00 +18°C° 0.3 mm 1 mps 640 mmHg 97%
20:00 +18°C° 0.1 mm 1 mps 640 mmHg 97%
21:00 +18°C° 0.1 mm 1 mps 640 mmHg 97%
22:00 +18°C° 0.1 mm 1 mps 640 mmHg 96%
23:00 +16°C° 0 mm 1 mps 640 mmHg 97%
Show more